This demonstration page uses our WeatherBlox Daily Observations layout. Learn more.

Left ArrowRight Arrow

Hourly Observations for April 3, 2022

Temp ( °F °C ) Dew Point ( °F °C ) Humidity (%) Winds ( mph kmh ) Pressure ( in mb ) Visibility ( mi km ) Precip ( " mm )
12:56 am 00:56 Mostly Clear 43 6.2 26 -3.2 51 51 Calm 30.06 1018 10 16 0.00 0.00
1:56 am 01:56 Mostly Clear 41 5.2 25 -3.9 52 52 E 3 6 30.05 1018 10 16 0.00 0.00
2:56 am 02:56 Mostly Clear 42 5.6 25 -3.7 52 52 Calm 30.04 1017 10 16 0.00 0.00
3:56 am 03:56 Mostly Clear 41 4.8 25 -3.7 54 54 Calm 30.04 1017 10 16 0.00 0.00
4:56 am 04:56 Mostly Clear 40 4.5 26 -3.5 56 56 SE 3 6 30.02 1017 10 16 0.00 0.00
5:56 am 05:56 Mostly Cloudy 40 4.7 26 -3.3 57 57 E 5 7 30.00 1016 10 16 0.00 0.00
6:56 am 06:56 Mostly Cloudy 39 4.1 27 -3 60 60 SE 3 6 30.01 1016 10 16 0.00 0.00
7:56 am 07:56 Mostly Cloudy with Light Rain 43 5.9 29 -1.7 59 59 E 6 9 30.00 1016 10 16 0.00 0.00
8:56 am 08:56 Mostly Cloudy 45 7.2 31 -0.5 58 58 SSE 7 11 30.01 1016 10 16 0.00 0.00
9:56 am 09:56 Cloudy 47 8.6 30 -1 51 51 SE 8 13 29.99 1016 10 16 0.00 0.00
10:56 am 10:56 Cloudy 49 9.4 32 0 52 52 SSE 9 15 29.98 1015 10 16 0.00 0.00
11:56 am 11:56 Mostly Cloudy 51 10.8 33 0.8 50 50 S 9 15 29.96 1015 10 16 0.00 0.00
12:56 pm 12:56 Cloudy 56 13.3 35 1.9 46 46 S 8 13 29.95 1014 10 16 0.00 0.00
1:56 pm 13:56 Cloudy with Light Showers 55 12.7 38 3.6 54 54 SSW 10 17 29.94 1014 10 16 0.00 0.00
2:56 pm 14:56 Cloudy with Light Showers 54 12.4 39 3.9 56 56 S 10 17 29.91 1013 10 16 0.00 0.00
3:56 pm 15:56 Cloudy 54 12.1 42 5.3 63 63 S 6 9 29.89 1012 10 16 0.00 0.00
4:56 pm 16:56 Mostly Cloudy 56 13.5 42 5.6 59 59 SSW 8 13 29.88 1012 10 16 0.00 0.00
5:56 pm 17:56 Mostly Cloudy 57 13.9 42 5.3 56 56 S 5 7 29.88 1012 10 16 0.00 0.00
6:56 pm 18:56 Mostly Cloudy 57 13.7 42 5.8 59 59 S 6 9 29.89 1012 10 16 0.00 0.00
7:56 pm 19:56 Partly Cloudy 53 11.8 42 5.7 66 66 S 5 7 29.90 1013 10 16 0.00 0.00
8:56 pm 20:56 Mostly Cloudy 49 9.5 42 5.7 77 77 E 3 6 29.91 1013 10 16 0.00 0.00
9:56 pm 21:56 Clear 45 7.1 43 5.9 92 92 Calm 29.93 1013 10 16 0.00 0.00
10:56 pm 22:56 Clear 43 6.2 40 4.7 90 90 NW 6 9 29.93 1014 10 16 0.00 0.00
11:56 pm 23:56 Clear 44 6.8 33 0.5 65 65 WNW 7 11 29.95 1014 10 16 0.00 0.00

Powered by AerisWeather